Stations météo

Publicité
St-Auban-Sur-Durance, France (7588): Température de l'air & dewpoint: 11.08.2019 17:00:00 - 17.08.2019 17:00:00 (CEST)St-Auban-Sur-Durance, France (7588): Température de l'air 5cm: 11.08.2019 17:00:00 - 17.08.2019 17:00:00 (CEST)St-Auban-Sur-Durance, France (7588): Température de l'air -20cm: 11.08.2019 17:00:00 - 17.08.2019 17:00:00 (CEST)St-Auban-Sur-Durance, France (7588): Vitesse du vent & gusts: 11.08.2019 17:00:00 - 17.08.2019 17:00:00 (CEST)St-Auban-Sur-Durance, France (7588): Direction du vent: 11.08.2019 17:00:00 - 17.08.2019 17:00:00 (CEST)St-Auban-Sur-Durance, France (7588): reduced air pressure: 11.08.2019 17:00:00 - 17.08.2019 17:00:00 (CEST)St-Auban-Sur-Durance, France (7588): visibility: 11.08.2019 17:00:00 - 17.08.2019 17:00:00 (CEST)St-Auban-Sur-Durance, France (7588): Ensoleillement: 11.08.2019 17:00:00 - 17.08.2019 17:00:00 (CEST)St-Auban-Sur-Durance, France (7588): Quantités de précipitations: 11.08.2019 17:00:00 - 17.08.2019 17:00:00 (CEST)
Date & Time tt [°C] td [°C] tt 5cm [°C] tt -20cm [°C] ff [km/h] ff [knt] fx [km/h] fx [knt] dd ppp [hPa] vv [km] sd [min] rr [mm]
17.08.2019 17:00:00 32,3 5,7 39,1 27,2 16 9 29 16 SSW 1012,3 20 60 0,0
17.08.2019 16:00:00 31,6 7,3 39,0 26,8 15 8 30 16 SSW 1012,9 20 60 0,0
17.08.2019 15:00:00 30,7 7,2 35,6 26,4 10 5 27 14 S 1013,6 20 45 0,0
17.08.2019 14:00:00 30,6 7,7 35,2 26,1 16 9 27 14 SW 1014,2 20 53 0,0
17.08.2019 13:00:00 29,4 7,3 36,5 25,9 17 9 26 14 SW 1014,9 20 60 0,0
17.08.2019 12:00:00 28,0 8,8 34,0 25,9 5 3 20 11 SSE 1015,2 20 60 0,0
17.08.2019 11:00:00 24,6 8,9 25,2 26,0 9 5 22 12 NE 1016,2 20 52 0,0
17.08.2019 10:00:00 20,6 9,8 19,6 26,1 5 3 13 7 ENE 1017,1 20 26 0,0
17.08.2019 09:00:00 17,0 9,2 17,3 26,4 6 3 16 9 ENE 1017,8 20 11 0,0
17.08.2019 08:00:00 15,0 9,4 14,5 26,6 7 4 13 7 NE 1018,1 20 8 0,0
17.08.2019 07:00:00 13,5 8,8 13,6 26,8 7 4 12 7 NE 1018,4 20 0 0,0
17.08.2019 06:00:00 13,3 9,0 13,8 27,1 8 4 12 6 NE 1018,4 20 0 0,0
17.08.2019 05:00:00 13,9 9,3 13,7 27,3 8 4 11 6 NE 1018,1 20 0 0,0
17.08.2019 04:00:00 14,6 9,2 14,6 27,5 3 1 6 3 NE 1018,0 20 0 0,0
17.08.2019 03:00:00 15,3 9,0 15,3 27,7 2 1 10 5 SSE 1017,6 20 0 0,0
17.08.2019 02:00:00 16,2 9,1 16,0 27,9 3 2 11 6 ESE 1017,7 20 0 0,0
17.08.2019 01:00:00 16,9 9,1 16,7 28,1 0 0 7 4 N 1017,8 20 0 0,0
17.08.2019 00:00:00 17,5 8,6 17,7 28,2 5 3 9 5 W 1017,2 20 0 0,0
16.08.2019 23:00:00 19,1 8,1 18,7 28,3 4 2 9 5 SE 1016,4 20 0 0,0
16.08.2019 22:00:00 21,8 8,3 20,7 28,3 0 0 11 6 N 1015,4 20 0 0,0
16.08.2019 21:00:00 25,0 8,0 25,0 28,3 10 6 22 12 WSW 1014,1 20 12 0,0
16.08.2019 20:00:00 27,2 9,1 28,2 28,1 16 9 28 15 SSW 1013,1 20 36 0,0
16.08.2019 19:00:00 29,0 9,2 32,2 27,9 21 11 33 18 SSW 1012,6 20 58 0,0
16.08.2019 18:00:00 30,0 8,4 35,6 27,5 19 11 31 17 SSW 1012,5 20 58 0,0
16.08.2019 17:00:00 30,1 9,0 37,2 27,1 16 9 31 17 SSW 1012,5 20 60 0,0
16.08.2019 16:00:00 30,0 10,0 36,6 26,7 17 9 33 18 WSW 1013,0 20 60 0,0
16.08.2019 15:00:00 29,5 11,1 36,4 26,3 18 10 31 17 SW 1013,2 18 60 0,0
16.08.2019 14:00:00 28,5 10,2 35,0 26,0 19 11 33 18 SW 1014,0 20 60 0,0
16.08.2019 13:00:00 27,6 11,2 34,0 25,8 18 10 29 16 WSW 1014,3 20 60 0,0
16.08.2019 12:00:00 26,4 10,1 31,8 25,8 5 3 18 10 NNE 1015,2 20 60 0,0
16.08.2019 11:00:00 23,9 8,7 28,3 25,8 11 6 29 16 NE 1015,9 20 60 0,0
16.08.2019 10:00:00 21,6 7,4 24,8 26,0 15 8 31 17 NNE 1016,5 20 60 0,0
16.08.2019 09:00:00 19,6 7,7 20,9 26,2 12 6 40 22 NE 1016,6 20 60 0,0
16.08.2019 08:00:00 17,9 7,3 18,0 26,4 26 14 42 23 N 1016,4 20 48 0,0
16.08.2019 07:00:00 17,3 7,6 17,4 26,6 18 10 41 22 NNE 1015,6 20 0 0,0
16.08.2019 06:00:00 17,3 7,6 17,5 26,8 16 9 44 24 NNE 1015,4 20 0 0,0
16.08.2019 05:00:00 18,3 7,4 18,2 27,0 24 13 39 21 N 1015,5 20 0 0,0
16.08.2019 04:00:00 18,9 7,3 18,9 27,2 17 9 31 17 N 1016,1 20 0 0,0
16.08.2019 03:00:00 19,6 8,0 19,7 27,4 11 6 26 14 NNE 1016,0 20 0 0,0
16.08.2019 02:00:00 20,2 8,2 20,1 27,6 8 5 23 12 NE 1015,8 20 0 0,0
16.08.2019 01:00:00 20,6 8,9 20,8 27,7 10 5 29 16 N 1015,4 20 0 0,0
16.08.2019 00:00:00 21,5 9,7 21,7 27,9 13 7 33 18 NNE 1015,1 20 0 0,0
15.08.2019 23:00:00 22,5 10,0 22,8 27,9 7 4 33 18 NE 1014,6 20 0 0,0
15.08.2019 22:00:00 23,4 9,8 23,8 27,9 16 9 33 18 N 1014,1 20 0 0,0
15.08.2019 21:00:00 25,0 8,5 25,3 27,9 16 9 36 19 N 1013,1 20 0 0,0
15.08.2019 20:00:00 27,1 8,5 27,5 27,7 18 10 32 17 N 1012,5 20 37 0,0
15.08.2019 19:00:00 28,5 8,7 33,9 27,4 19 10 35 19 NNW 1011,9 20 60 0,0
15.08.2019 18:00:00 30,1 9,6 32,3 27,0 16 9 33 18 WNW 1011,2 20 53 0,0
15.08.2019 17:00:00 30,2 9,7 32,9 26,6 22 12 41 22 WNW 1011,4 20 46 0,0
15.08.2019 16:00:00 29,1 8,7 33,9 26,2 11 6 24 13 WSW 1011,9 20 50 0,0
15.08.2019 15:00:00 29,2 8,3 36,8 25,9 3 2 21 12 W 1012,5 18 57 0,0
15.08.2019 14:00:00 27,3 7,7 30,6 25,6 4 2 22 12 SE 1013,6 20 14 0,0
15.08.2019 13:00:00 27,5 7,4 34,4 25,4 13 7 21 11 SSW 1014,2 20 60 0,0
15.08.2019 12:00:00 26,1 7,6 30,6 25,3 10 5 34 18 SSW 1014,9 20 55 0,0
15.08.2019 11:00:00 24,2 6,5 26,4 25,4 18 10 29 15 N 1015,4 20 54 0,0
15.08.2019 10:00:00 22,2 9,0 22,6 25,5 13 7 25 13 NE 1015,8 20 53 0,0
15.08.2019 09:00:00 19,2 8,8 19,2 25,7 6 3 22 12 E 1016,8 20 33 0,0
15.08.2019 08:00:00 17,2 8,6 15,5 25,8 9 5 23 12 ENE 1016,9 20 53 0,0
15.08.2019 07:00:00 15,1 8,3 13,6 26,0 4 2 16 8 ENE 1017,2 20 0 0,0
15.08.2019 06:00:00 13,9 7,9 13,9 26,3 5 3 16 9 SSE 1017,1 20 0 0,0
15.08.2019 05:00:00 17,1 8,2 16,3 26,5 6 3 23 12 NE 1016,5 20 0 0,0
15.08.2019 04:00:00 18,5 8,2 16,9 26,6 11 6 23 12 ENE 1015,8 20 0 0,0
15.08.2019 03:00:00 17,9 7,9 17,9 26,8 5 3 26 14 ENE 1016,1 20 0 0,0
15.08.2019 02:00:00 19,0 8,3 16,9 27,0 12 6 22 12 NNE 1016,0 20 0 0,0
15.08.2019 01:00:00 19,9 8,2 18,5 27,2 6 3 15 8 E 1016,0 20 0 0,0
15.08.2019 00:00:00 20,9 8,2 18,1 27,3 5 3 10 5 ENE 1015,7 20 0 0,0
14.08.2019 23:00:00 22,3 8,0 19,2 27,4 5 3 16 9 E 1015,1 20 0 0,0
14.08.2019 22:00:00 22,3 7,3 20,7 27,4 5 3 18 10 NE 1014,4 20 0 0,0
14.08.2019 21:00:00 24,6 6,3 22,9 27,3 4 2 32 18 WNW 1013,1 20 0 0,0
14.08.2019 20:00:00 27,0 6,4 27,7 27,2 18 10 35 19 SSW 1011,7 20 39 0,0
14.08.2019 19:00:00 28,5 6,0 33,0 26,9 25 13 38 21 SSW 1011,0 20 60 0,0
14.08.2019 18:00:00 29,3 7,8 35,7 26,6 19 10 28 15 SSW 1010,7 20 60 0,0
14.08.2019 17:00:00 29,1 7,6 35,8 26,2 21 11 34 19 S 1011,0 20 60 0,0
14.08.2019 16:00:00 28,9 7,5 35,6 25,8 20 11 34 19 SSW 1011,4 20 60 0,0
14.08.2019 15:00:00 29,4 6,1 36,2 25,4 10 6 30 16 SSW 1011,7 19 60 0,0
14.08.2019 14:00:00 28,3 3,2 35,0 25,1 16 9 35 19 NE 1011,9 20 60 0,0
14.08.2019 13:00:00 26,2 5,7 31,9 25,0 18 10 36 19 NNE 1012,9 20 60 0,0
14.08.2019 12:00:00 23,9 7,1 29,1 24,9 15 8 31 17 NE 1013,7 20 60 0,0
14.08.2019 11:00:00 21,4 7,6 23,6 25,0 16 9 37 20 NE 1014,4 20 33 0,0
14.08.2019 10:00:00 19,8 7,2 19,7 25,1 14 8 41 22 NNE 1014,7 20 4 0,0
14.08.2019 09:00:00 17,8 7,5 18,3 25,3 25 14 48 26 N 1014,7 20 9 0,0
14.08.2019 08:00:00 16,7 7,6 17,5 25,5 21 12 32 17 NNE 1014,6 20 0 0,0
14.08.2019 07:00:00 16,6 7,5 16,4 25,7 19 11 35 19 N 1015,0 20 0 0,0
14.08.2019 06:00:00 16,3 7,5 16,5 25,8 17 9 41 22 NNE 1014,7 20 0 0,0
14.08.2019 05:00:00 16,4 7,6 16,7 26,1 30 16 53 29 N 1014,6 20 0 0,0
14.08.2019 04:00:00 16,7 7,9 17,3 26,3 37 20 53 29 N 1014,3 20 0 0,0
14.08.2019 03:00:00 17,1 7,7 17,7 26,4 36 19 55 30 N 1014,4 20 0 0,0
14.08.2019 02:00:00 17,5 7,8 17,9 26,6 20 11 45 24 NNE 1014,3 20 0 0,0
14.08.2019 01:00:00 18,3 7,4 18,4 26,8 16 9 42 23 NNE 1014,2 20 0 0,0
14.08.2019 00:00:00 18,7 7,5 18,9 26,9 15 8 40 22 N 1014,3 20 0 0,0
13.08.2019 23:00:00 19,7 7,7 20,1 27,0 16 9 39 21 NNE 1013,7 20 0 0,0
13.08.2019 22:00:00 20,3 8,3 20,7 27,1 26 14 44 24 N 1013,1 20 0 0,0
13.08.2019 21:00:00 21,5 8,4 21,9 27,0 21 11 46 25 N 1012,2 20 0 0,0
13.08.2019 20:00:00 23,4 8,3 24,4 26,9 26 14 41 22 N 1011,2 20 35 0,0
13.08.2019 19:00:00 25,3 7,4 30,5 26,7 27 15 45 25 N 1010,4 20 60 0,0
13.08.2019 18:00:00 26,3 5,3 31,2 26,5 29 16 45 24 N 1010,2 20 60 0,0
13.08.2019 17:00:00 26,7 4,4 32,1 26,2 27 15 50 27 N 1010,5 20 58 0,0
13.08.2019 16:00:00 26,4 5,3 31,8 26,0 34 19 50 27 N 1010,8 20 53 0,0
13.08.2019 15:00:00 25,7 6,8 30,3 25,8 29 16 46 25 N 1011,5 20 52 0,0
13.08.2019 14:00:00 25,0 6,7 29,9 25,6 24 13 46 25 N 1011,9 20 49 0,0
13.08.2019 13:00:00 23,6 6,8 29,0 25,5 21 11 44 24 N 1013,0 20 13 0,0
13.08.2019 12:00:00 23,4 6,6 27,9 25,6 24 13 49 26 N 1013,3 20 60 0,0
13.08.2019 11:00:00 21,8 8,0 24,2 25,7 24 13 44 24 N 1013,6 20 21 0,0
13.08.2019 10:00:00 21,0 8,6 24,1 25,8 20 11 46 25 N 1014,0 20 60 0,0
13.08.2019 09:00:00 19,1 9,0 21,0 26,0 12 7 47 25 NNE 1014,6 20 60 0,0
13.08.2019 08:00:00 17,6 9,2 16,7 26,2 17 9 35 19 NNE 1015,1 20 45 0,0
13.08.2019 07:00:00 16,3 9,0 16,5 26,5 12 7 39 21 NNE 1015,1 20 0 0,0
13.08.2019 06:00:00 16,6 9,0 16,8 26,7 24 13 46 25 N 1015,2 20 0 0,0
13.08.2019 05:00:00 16,8 9,0 17,1 26,9 17 9 31 17 N 1015,2 20 0 0,0
13.08.2019 04:00:00 17,9 8,5 17,5 27,2 12 6 33 18 N 1015,3 20 0 0,0
13.08.2019 03:00:00 18,4 8,4 18,3 27,5 15 8 40 21 NNE 1014,9 20 0 0,0
13.08.2019 02:00:00 18,8 7,6 18,9 27,7 24 13 42 23 NNE 1015,3 20 0 0,0
13.08.2019 01:00:00 19,2 7,6 19,3 27,9 18 10 35 19 N 1015,4 20 0 0,0
13.08.2019 00:00:00 20,1 8,1 19,6 28,1 10 6 24 13 NNE 1015,6 20 0 0,0
12.08.2019 23:00:00 20,9 8,8 20,9 28,4 16 8 35 19 N 1015,4 20 0 0,0
12.08.2019 22:00:00 21,5 10,0 21,5 28,5 15 8 41 22 N 1015,1 20 0 0,0
12.08.2019 21:00:00 22,5 11,6 22,9 28,6 26 14 51 28 N 1013,8 20 8 0,0
12.08.2019 20:00:00 24,1 11,8 25,1 28,6 34 18 55 30 N 1012,6 20 45 0,0
12.08.2019 19:00:00 27,4 13,3 28,9 28,5 26 14 45 24 N 1011,1 20 21 0,0
12.08.2019 18:00:00 26,4 17,7 29,5 28,4 12 6 22 12 NNE 1011,0 20 19 0,0
12.08.2019 17:00:00 26,6 18,5 30,1 28,3 6 4 18 10 S 1010,9 20 31 0,0
12.08.2019 16:00:00 25,7 18,4 23,6 28,3 3 2 10 5 ESE 1011,7 20 18 0,0
12.08.2019 15:00:00 23,8 19,1 23,4 28,3 4 2 20 11 N 1012,8 19 7 1,4
12.08.2019 14:00:00 23,5 18,2 25,0 28,2 15 8 24 13 N 1012,7 20 0 0,2
12.08.2019 13:00:00 26,0 16,8 29,7 28,2 9 5 21 11 NNE 1012,1 20 8 0,0
12.08.2019 12:00:00 24,4 17,4 25,4 28,3 13 7 23 13 NNE 1012,4 20 0 0,0
12.08.2019 11:00:00 22,6 18,2 23,3 28,4 10 5 21 11 NE 1012,7 20 0 0,0
12.08.2019 10:00:00 20,8 18,7 20,8 28,6 3 2 17 9 NE 1013,3 19 0 0,0
12.08.2019 09:00:00 19,8 18,6 20,4 28,8 4 2 13 7 N 1013,6 10 0 0,2
12.08.2019 08:00:00 19,3 18,1 19,9 29,0 3 1 10 6 S 1014,0 12 18 0,0
12.08.2019 07:00:00 18,6 17,6 18,3 29,1 4 2 8 4 SE 1013,2 13 2 0,0
12.08.2019 06:00:00 18,4 17,4 18,6 29,4 0 0 6 3 N 1012,7 13 0 0,0
12.08.2019 05:00:00 19,0 17,7 19,2 29,6 0 0 6 4 N 1012,5 14 0 0,0
12.08.2019 04:00:00 19,5 17,8 19,8 29,8 0 0 8 4 N 1013,0 16 0 0,0
12.08.2019 03:00:00 20,1 18,0 20,5 29,9 2 1 7 4 NE 1013,5 18 0 0,0
12.08.2019 02:00:00 21,1 18,5 21,2 30,1 0 0 6 4 N 1013,7 20 0 0,0
12.08.2019 01:00:00 22,2 19,0 22,5 30,2 0 0 9 5 N 1013,8 20 0 0,0
12.08.2019 00:00:00 22,9 19,3 23,5 30,3 7 4 10 6 W 1013,9 20 0 0,0
11.08.2019 23:00:00 24,1 19,4 25,0 30,4 6 3 21 12 W 1013,5 20 0 0,0
11.08.2019 22:00:00 25,1 19,5 25,8 30,5 16 9 26 14 SSW 1012,7 20 0 0,0
11.08.2019 21:00:00 26,7 19,6 27,5 30,4 16 9 31 17 SSW 1011,9 20 0 0,0
11.08.2019 20:00:00 28,9 18,1 30,1 30,3 22 12 35 19 S 1011,1 20 17 0,0
11.08.2019 19:00:00 31,0 17,3 35,4 30,1 19 10 37 20 S 1010,3 20 60 0,0
11.08.2019 18:00:00 32,2 16,5 33,9 29,9 23 13 40 22 S 1010,1 20 32 0,0
11.08.2019 17:00:00 31,8 16,1 35,2 29,5 22 12 41 22 S 1010,2 20 38 0,0

tt = Température de l'air
td = dewpoint
tt 5cm = Température de l'air 5cm
tt -20cm = Température de l'air -20cm
ff = Vitesse du vent
fx = gusts
dd = Direction du vent
ppp = reduced air pressure
vv = visibility
sd = Ensoleillement
rr = Quantités de précipitations

stations d'obs. à proximité